Regional Weather Roundup
Issued by NWS

Home | Current Version | Previous Version | Text Only | Print | Product List | Glossary On
Versions: 1 2 3 4 5 6 7 8 9 10 11 12 13 14 15 16 17 18 19 20 21 22 23 24 25 26 27 28 29 30 31 32 33 34 35 36 37 38 39 40 41 42 43 44 45 46 47 48 49 50
000
ASUS43 KLMK 280110
RWRKY
KENTUCKY REGIONAL WEATHER ROUNDUP
NATIONAL WEATHER SERVICE LOUISVILLE KY
900 PM EDT WED JUL 27 2016

NOTE "FAIR" INDICATES FEW OR NO CLOUDS BELOW 12,000 FEET
WITH NO SIGNIFICANT WEATHER AND/OR OBSTRUCTIONS TO VISIBILITY.

KYZ001>023-026-027-061>063-070>075-280200-
WESTERN AND SOUTH CENTRAL KENTUCKY

CITY           SKY/WX    TMP DP  RH WIND       PRES   REMARKS
PADUCAH        TSTM      76  73  91 SW6       29.92R
HENDERSON      NOT AVBL
OWENSBORO      TSTM      77  76  96 S14       29.98R FOG
HOPKINSVILLE   DRIZZLE   82  77  83 N6        29.91R HX  91
BOWLING GREEN  CLOUDY    79  74  84 CALM      29.94R
GLASGOW        CLOUDY    79  72  78 CALM      29.95R
$$

KYZ024-025-028>034-038-045-046-053-280200-
NORTH CENTRAL KENTUCKY

CITY           SKY/WX    TMP DP  RH WIND       PRES   REMARKS
LOUISVILLE/SDF CLOUDY    80  73  79 CALM      29.90S
LOUISVILLE/LOU PTCLDY    76  72  87 W3        29.92S
FORT KNOX      CLOUDY    79  76  89 N2        29.92R
$$

KYZ035>037-039>044-047>052-055>060-089>105-280200-
NORTHEAST KENTUCKY

CITY           SKY/WX    TMP DP  RH WIND       PRES   REMARKS
LEXINGTON      CLEAR     83  73  72 S3        29.95R
COVINGTON      MOCLDY    81  73  76 W3        29.92F
FRANKFORT      CLOUDY    80  74  81 CALM      29.93R
$$

KYZ054-064>069-076>088-106>120-280200-
SOUTHEAST KENTUCKY

CITY           SKY/WX    TMP DP  RH WIND       PRES   REMARKS
JACKSON        CLOUDY    73  70  90 CALM      30.00R
LONDON         CLOUDY    79  66  64 E3        29.97R THUNDER
SOMERSET       CLOUDY    77  68  73 N6        29.97S THUNDER
MIDDLESBORO    MOCLDY    80  73  80 E3        29.99R
MONTICELLO     MOCLDY   N/A N/A N/A W10       29.96S
$$




USA.gov is the U.S. government's official web portal to all federal, state and local government web resources and services.